Time,TemperatureF,DewpointF,PressureIn,WindDirection,WindDirectionDegrees,WindSpeedMPH,WindSpeedGustMPH,Humidity,HourlyPrecipIn,Conditions,Clouds,dailyrainin,SoftwareType,DateUTC
2013-08-04 00:01:00,81.9,62.0,29.61,ESE,123,7.6,7.6,51,0.00,,---,0.00,VWS V14.01,2013-08-04 05:01:00,
2013-08-04 00:06:00,81.9,62.0,29.61,SE,127,12.8,12.8,51,0.00,,---,0.00,VWS V14.01,2013-08-04 05:06:00,
2013-08-04 00:11:00,81.7,61.8,29.61,ESE,117,8.3,8.7,51,0.00,,---,0.00,VWS V14.01,2013-08-04 05:11:00,
2013-08-04 00:16:00,81.7,61.8,29.61,SE,124,6.3,6.3,51,0.00,,---,0.00,VWS V14.01,2013-08-04 05:16:00,
2013-08-04 00:21:00,81.5,61.7,29.61,ESE,121,5.4,8.7,51,0.00,,---,0.00,VWS V14.01,2013-08-04 05:21:00,
2013-08-04 00:26:00,81.3,61.5,29.61,ESE,118,6.3,8.1,51,0.00,,---,0.00,VWS V14.01,2013-08-04 05:26:00,
2013-08-04 00:31:00,81.3,61.5,29.61,SE,132,8.1,8.1,51,0.00,,---,0.00,VWS V14.01,2013-08-04 05:31:00,
2013-08-04 00:36:00,81.1,61.3,29.61,SE,129,8.7,8.7,51,0.00,,---,0.00,VWS V14.01,2013-08-04 05:36:00,
2013-08-04 00:41:00,81.1,61.3,29.61,SE,145,7.6,8.3,51,0.00,,---,0.00,VWS V14.01,2013-08-04 05:41:00,
2013-08-04 00:46:00,81.0,61.2,29.61,ESE,117,7.6,7.6,51,0.00,,---,0.00,VWS V14.01,2013-08-04 05:46:00,
2013-08-04 00:51:00,80.8,61.8,29.61,ESE,111,5.4,5.8,52,0.00,,---,0.00,VWS V14.01,2013-08-04 05:51:00,
2013-08-04 00:56:00,80.6,61.6,29.61,ESE,119,8.3,8.3,52,0.00,,---,0.00,VWS V14.01,2013-08-04 05:56:00,
2013-08-04 01:01:00,80.2,62.1,29.61,ESE,118,8.3,8.3,54,0.00,,---,0.00,VWS V14.01,2013-08-04 06:01:00,
2013-08-04 01:06:00,79.9,61.8,29.61,ESE,120,6.3,7.6,54,0.00,,---,0.00,VWS V14.01,2013-08-04 06:06:00,
2013-08-04 01:11:00,79.7,62.4,29.61,ESE,113,7.6,7.6,56,0.00,,---,0.00,VWS V14.01,2013-08-04 06:11:00,
2013-08-04 01:16:00,79.5,62.2,29.61,SE,126,5.8,6.3,56,0.00,,---,0.00,VWS V14.01,2013-08-04 06:16:00,
2013-08-04 01:20:00,79.2,61.9,29.61,ESE,119,5.8,5.8,56,0.00,,---,0.00,VWS V14.01,2013-08-04 06:20:00,
2013-08-04 01:26:00,79.0,62.5,29.61,SE,128,5.8,6.3,57,0.00,,---,0.00,VWS V14.01,2013-08-04 06:26:00,
2013-08-04 01:31:00,78.8,62.3,29.61,SE,129,4.9,5.8,57,0.00,,---,0.00,VWS V14.01,2013-08-04 06:31:00,
2013-08-04 01:36:00,78.6,62.9,29.61,SE,134,5.4,5.8,58,0.00,,---,0.00,VWS V14.01,2013-08-04 06:36:00,
2013-08-04 01:41:00,78.4,62.7,29.61,ESE,120,4.9,6.3,58,0.00,,---,0.00,VWS V14.01,2013-08-04 06:41:00,
2013-08-04 01:46:00,78.4,62.7,29.61,SE,128,4.0,4.9,58,0.00,,---,0.00,VWS V14.01,2013-08-04 06:46:00,
2013-08-04 01:51:00,78.3,63.2,29.61,ESE,117,5.4,5.8,60,0.00,,---,0.00,VWS V14.01,2013-08-04 06:51:00,
2013-08-04 01:55:00,78.1,63.1,29.61,ESE,106,5.8,5.8,60,0.00,,---,0.00,VWS V14.01,2013-08-04 06:55:00,
2013-08-04 02:01:00,77.9,62.9,29.61,SE,127,6.3,6.3,60,0.00,,---,0.00,VWS V14.01,2013-08-04 07:01:00,
2013-08-04 02:05:00,77.9,62.9,29.61,ESE,115,5.4,5.4,60,0.00,,---,0.00,VWS V14.01,2013-08-04 07:05:00,
2013-08-04 02:10:00,77.7,62.7,29.61,ESE,107,6.3,7.6,60,0.00,,---,0.00,VWS V14.01,2013-08-04 07:10:00,
2013-08-04 02:15:00,77.7,63.4,29.58,ESE,107,5.4,7.2,62,0.00,,---,0.00,VWS V14.01,2013-08-04 07:15:00,
2013-08-04 02:20:00,77.5,63.3,29.58,ESE,113,5.8,7.6,62,0.00,,---,0.00,VWS V14.01,2013-08-04 07:20:00,
2013-08-04 02:25:00,77.7,62.7,29.58,ESE,117,8.7,8.7,60,0.00,,---,0.00,VWS V14.01,2013-08-04 07:25:00,
2013-08-04 02:30:00,77.9,62.9,29.58,ESE,113,4.9,6.3,60,0.00,,---,0.00,VWS V14.01,2013-08-04 07:30:00,
2013-08-04 02:35:00,77.7,62.7,29.58,ESE,119,6.3,6.3,60,0.00,,---,0.00,VWS V14.01,2013-08-04 07:35:00,
2013-08-04 02:40:00,77.7,62.7,29.58,ESE,117,4.9,6.3,60,0.00,,---,0.00,VWS V14.01,2013-08-04 07:40:00,
2013-08-04 02:45:00,77.5,61.8,29.58,ESE,107,3.6,5.8,58,0.00,,---,0.00,VWS V14.01,2013-08-04 07:45:00,
2013-08-04 02:50:00,77.5,61.8,29.58,ESE,115,5.4,5.4,58,0.00,,---,0.00,VWS V14.01,2013-08-04 07:50:00,
2013-08-04 02:55:00,77.4,62.4,29.58,ESE,105,4.0,4.0,60,0.00,,---,0.00,VWS V14.01,2013-08-04 07:55:00,
2013-08-04 03:00:00,77.2,62.2,29.61,East,97,3.6,3.6,60,0.00,,---,0.00,VWS V14.01,2013-08-04 08:00:00,
2013-08-04 03:05:00,77.0,62.1,29.61,ESE,103,2.7,3.1,60,0.00,,---,0.00,VWS V14.01,2013-08-04 08:05:00,
2013-08-04 03:10:00,76.8,62.6,29.61,ESE,103,2.7,2.7,62,0.00,,---,0.00,VWS V14.01,2013-08-04 08:10:00,
2013-08-04 03:15:00,76.5,62.3,29.61,ESE,103,2.7,3.1,62,0.00,,---,0.00,VWS V14.01,2013-08-04 08:15:00,
2013-08-04 03:20:00,76.3,62.1,29.61,ESE,103,3.1,3.1,62,0.00,,---,0.00,VWS V14.01,2013-08-04 08:20:00,
2013-08-04 03:25:00,76.1,61.9,29.61,ESE,103,3.1,3.6,62,0.00,,---,0.00,VWS V14.01,2013-08-04 08:25:00,
2013-08-04 03:30:00,75.7,61.6,29.61,ESE,103,3.1,3.1,62,0.00,,---,0.00,VWS V14.01,2013-08-04 08:30:00,
2013-08-04 03:35:00,75.6,62.1,29.61,ESE,103,3.1,4.0,63,0.00,,---,0.00,VWS V14.01,2013-08-04 08:35:00,
2013-08-04 03:40:00,75.6,62.1,29.61,ESE,102,3.1,3.1,63,0.00,,---,0.00,VWS V14.01,2013-08-04 08:40:00,
2013-08-04 03:45:00,75.4,61.9,29.61,East,101,4.0,4.0,63,0.00,,---,0.00,VWS V14.01,2013-08-04 08:45:00,
2013-08-04 03:50:00,75.0,62.2,29.61,ENE,77,4.9,4.9,64,0.00,,---,0.00,VWS V14.01,2013-08-04 08:50:00,
2013-08-04 03:55:00,74.8,62.7,29.61,ENE,74,4.0,4.9,66,0.00,,---,0.00,VWS V14.01,2013-08-04 08:55:00,
2013-08-04 03:56:00,74.8,62.7,29.61,ENE,74,4.0,4.5,66,0.00,,---,0.00,VWS V14.01,2013-08-04 08:56:00,
2013-08-04 04:01:00,74.7,62.6,29.61,ENE,74,4.0,4.9,66,0.00,,---,0.00,VWS V14.01,2013-08-04 09:01:00,
2013-08-04 04:06:00,74.7,62.6,29.61,East,81,3.6,4.0,66,0.00,,---,0.00,VWS V14.01,2013-08-04 09:06:00,
2013-08-04 04:11:00,74.7,63.2,29.61,East,81,3.6,3.6,68,0.00,,---,0.00,VWS V14.01,2013-08-04 09:11:00,
2013-08-04 04:16:00,74.8,62.7,29.61,East,91,4.0,4.0,66,0.00,,---,0.00,VWS V14.01,2013-08-04 09:16:00,
2013-08-04 04:21:00,75.0,62.9,29.61,East,91,3.6,3.6,66,0.00,,---,0.00,VWS V14.01,2013-08-04 09:21:00,
2013-08-04 04:26:00,75.0,62.9,29.61,East,87,3.1,3.1,66,0.00,,---,0.00,VWS V14.01,2013-08-04 09:26:00,
2013-08-04 04:31:00,75.2,62.4,29.61,East,86,4.0,4.0,64,0.00,,---,0.00,VWS V14.01,2013-08-04 09:31:00,
2013-08-04 04:36:00,75.2,62.4,29.61,East,86,2.7,3.6,64,0.00,,---,0.00,VWS V14.01,2013-08-04 09:36:00,
2013-08-04 04:41:00,75.2,62.4,29.61,East,86,2.2,2.2,64,0.00,,---,0.00,VWS V14.01,2013-08-04 09:41:00,
2013-08-04 04:46:00,75.2,62.4,29.61,East,86,0.0,0.0,64,0.00,,---,0.00,VWS V14.01,2013-08-04 09:46:00,
2013-08-04 04:51:00,75.0,62.2,29.61,East,86,3.1,3.1,64,0.00,,---,0.00,VWS V14.01,2013-08-04 09:51:00,
2013-08-04 04:56:00,74.7,62.6,29.61,East,86,3.1,3.1,66,0.00,,---,0.00,VWS V14.01,2013-08-04 09:56:00,
2013-08-04 05:01:00,74.3,62.2,29.61,East,86,2.7,2.7,66,0.00,,---,0.00,VWS V14.01,2013-08-04 10:01:00,
2013-08-04 05:06:00,73.9,62.5,29.61,NE,41,5.8,6.3,68,0.00,,---,0.00,VWS V14.01,2013-08-04 10:06:00,
2013-08-04 05:11:00,74.1,62.7,29.61,NE,56,8.7,8.7,68,0.00,,---,0.00,VWS V14.01,2013-08-04 10:11:00,
2013-08-04 05:16:00,74.3,62.9,29.61,ENE,68,5.8,5.8,68,0.00,,---,0.00,VWS V14.01,2013-08-04 10:16:00,
2013-08-04 05:21:00,74.3,62.2,29.61,ENE,73,5.8,6.3,66,0.00,,---,0.00,VWS V14.01,2013-08-04 10:21:00,
2013-08-04 05:26:00,74.3,62.2,29.61,ENE,73,6.3,6.3,66,0.00,,---,0.00,VWS V14.01,2013-08-04 10:26:00,
2013-08-04 05:31:00,74.5,62.4,29.61,ENE,78,5.4,6.3,66,0.00,,---,0.00,VWS V14.01,2013-08-04 10:31:00,
2013-08-04 05:36:00,74.5,62.4,29.61,East,79,6.3,6.3,66,0.00,,---,0.00,VWS V14.01,2013-08-04 10:36:00,
2013-08-04 05:41:00,74.7,62.6,29.61,East,90,6.3,7.2,66,0.00,,---,0.00,VWS V14.01,2013-08-04 10:41:00,
2013-08-04 05:46:00,74.8,62.7,29.61,East,85,7.6,7.6,66,0.00,,---,0.00,VWS V14.01,2013-08-04 10:46:00,
2013-08-04 05:51:00,74.8,62.7,29.61,East,98,4.9,5.4,66,0.00,,---,0.00,VWS V14.01,2013-08-04 10:51:00,
2013-08-04 05:56:00,74.8,62.7,29.61,East,98,5.8,5.8,66,0.00,,---,0.00,VWS V14.01,2013-08-04 10:56:00,
2013-08-04 06:01:00,74.7,62.6,29.61,East,93,5.8,6.3,66,0.00,,---,0.00,VWS V14.01,2013-08-04 11:01:00,
2013-08-04 06:06:00,74.5,62.4,29.61,East,91,6.3,6.3,66,0.00,,---,0.00,VWS V14.01,2013-08-04 11:06:00,
2013-08-04 06:11:00,74.5,62.4,29.61,East,85,4.9,5.8,66,0.00,,---,0.00,VWS V14.01,2013-08-04 11:11:00,
2013-08-04 06:16:00,74.3,62.2,29.64,East,83,5.8,5.8,66,0.00,,---,0.00,VWS V14.01,2013-08-04 11:16:00,
2013-08-04 06:21:00,74.3,62.9,29.64,East,91,6.3,6.3,68,0.00,,---,0.00,VWS V14.01,2013-08-04 11:21:00,
2013-08-04 06:26:00,74.1,62.7,29.64,ENE,78,4.0,4.0,68,0.00,,---,0.00,VWS V14.01,2013-08-04 11:26:00,
2013-08-04 06:31:00,74.1,62.7,29.64,East,95,5.4,5.4,68,0.00,,---,0.00,VWS V14.01,2013-08-04 11:31:00,
2013-08-04 06:36:00,74.1,62.7,29.64,East,82,4.5,4.5,68,0.00,,---,0.00,VWS V14.01,2013-08-04 11:36:00,
2013-08-04 06:41:00,73.9,62.5,29.64,East,88,4.9,4.9,68,0.00,,---,0.00,VWS V14.01,2013-08-04 11:41:00,
2013-08-04 06:46:00,73.9,62.5,29.64,East,91,5.4,5.4,68,0.00,,---,0.00,VWS V14.01,2013-08-04 11:46:00,
2013-08-04 06:51:00,73.8,62.3,29.64,East,84,4.0,4.9,68,0.00,,---,0.00,VWS V14.01,2013-08-04 11:51:00,
2013-08-04 06:56:00,73.8,63.0,29.64,East,92,5.8,5.8,69,0.00,,---,0.00,VWS V14.01,2013-08-04 11:56:00,
2013-08-04 07:01:00,73.8,63.0,29.64,East,101,6.3,6.3,69,0.00,,---,0.00,VWS V14.01,2013-08-04 12:01:00,
2013-08-04 07:06:00,73.8,63.0,29.64,East,99,5.4,5.8,69,0.00,,---,0.00,VWS V14.01,2013-08-04 12:06:00,
2013-08-04 07:11:00,73.8,63.0,29.64,East,92,5.4,5.4,69,0.00,,---,0.00,VWS V14.01,2013-08-04 12:11:00,
2013-08-04 07:16:00,73.8,63.0,29.64,East,95,4.0,4.9,69,0.00,,---,0.00,VWS V14.01,2013-08-04 12:16:00,
2013-08-04 07:21:00,73.8,63.0,29.64,East,88,6.3,6.3,69,0.00,,---,0.00,VWS V14.01,2013-08-04 12:21:00,
2013-08-04 07:26:00,73.9,63.1,29.64,ENE,61,6.3,6.3,69,0.00,,---,0.00,VWS V14.01,2013-08-04 12:26:00,
2013-08-04 07:31:00,73.9,63.1,29.64,ENE,72,5.4,6.3,69,0.00,,---,0.00,VWS V14.01,2013-08-04 12:31:00,
2013-08-04 07:36:00,74.1,63.3,29.64,East,82,5.4,5.4,69,0.00,,---,0.00,VWS V14.01,2013-08-04 12:36:00,
2013-08-04 07:41:00,74.1,63.3,29.64,East,97,4.5,4.5,69,0.00,,---,0.00,VWS V14.01,2013-08-04 12:41:00,
2013-08-04 07:46:00,74.3,63.5,29.64,ESE,102,4.5,4.9,69,0.00,,---,0.00,VWS V14.01,2013-08-04 12:46:00,
2013-08-04 07:51:00,74.5,63.7,29.64,ESE,110,5.4,5.4,69,0.00,,---,0.00,VWS V14.01,2013-08-04 12:51:00,
2013-08-04 07:56:00,74.5,63.7,29.64,ESE,109,4.0,4.0,69,0.00,,---,0.00,VWS V14.01,2013-08-04 12:56:00,
2013-08-04 08:01:00,74.7,63.8,29.64,East,99,4.0,4.0,69,0.00,,---,0.00,VWS V14.01,2013-08-04 13:01:00,
2013-08-04 08:06:00,74.8,64.0,29.64,East,85,4.5,4.5,69,0.00,,---,0.00,VWS V14.01,2013-08-04 13:06:00,
2013-08-04 08:11:00,75.0,64.2,29.64,ENE,73,4.9,4.9,69,0.00,,---,0.00,VWS V14.01,2013-08-04 13:11:00,
2013-08-04 08:16:00,75.4,63.9,29.64,ENE,77,4.9,6.3,68,0.00,,---,0.00,VWS V14.01,2013-08-04 13:16:00,
2013-08-04 08:21:00,75.7,63.6,29.64,ESE,106,5.8,6.3,66,0.00,,---,0.00,VWS V14.01,2013-08-04 13:21:00,
2013-08-04 08:26:00,76.1,63.9,29.64,ESE,102,6.7,6.7,66,0.00,,---,0.00,VWS V14.01,2013-08-04 13:26:00,
2013-08-04 08:31:00,76.5,63.6,29.64,ESE,120,6.3,7.2,64,0.00,,---,0.00,VWS V14.01,2013-08-04 13:31:00,
2013-08-04 08:35:00,77.0,64.1,29.64,East,96,5.8,5.8,64,0.00,,---,0.00,VWS V14.01,2013-08-04 13:35:00,
2013-08-04 08:41:00,77.5,64.0,29.64,East,99,6.3,6.7,63,0.00,,---,0.00,VWS V14.01,2013-08-04 13:41:00,
2013-08-04 08:46:00,77.9,64.3,29.64,East,98,5.4,5.8,63,0.00,,---,0.00,VWS V14.01,2013-08-04 13:46:00,
2013-08-04 08:51:00,78.1,63.8,29.64,ENE,78,4.0,4.0,62,0.00,,---,0.00,VWS V14.01,2013-08-04 13:51:00,
2013-08-04 08:56:00,78.1,63.8,29.64,East,86,4.9,5.4,62,0.00,,---,0.00,VWS V14.01,2013-08-04 13:56:00,
2013-08-04 09:00:00,78.3,64.0,29.67,East,90,4.9,5.4,62,0.00,,---,0.00,VWS V14.01,2013-08-04 14:00:00,
2013-08-04 09:06:00,78.6,64.3,29.67,East,96,5.4,5.8,62,0.00,,---,0.00,VWS V14.01,2013-08-04 14:06:00,
2013-08-04 09:11:00,79.0,63.9,29.67,ESE,108,4.0,8.3,60,0.00,,---,0.00,VWS V14.01,2013-08-04 14:11:00,
2013-08-04 09:15:00,79.5,64.4,29.67,ESE,109,7.6,7.6,60,0.00,,---,0.00,VWS V14.01,2013-08-04 14:15:00,
2013-08-04 09:21:00,80.1,63.5,29.67,ESE,113,6.3,7.6,57,0.00,,---,0.00,VWS V14.01,2013-08-04 14:21:00,
2013-08-04 09:26:00,80.6,62.4,29.67,East,96,6.3,6.3,54,0.00,,---,0.00,VWS V14.01,2013-08-04 14:26:00,
2013-08-04 09:31:00,81.5,63.3,29.64,ESE,107,5.8,6.7,54,0.00,,---,0.00,VWS V14.01,2013-08-04 14:31:00,
2013-08-04 09:36:00,82.4,63.3,29.64,SE,134,5.4,5.4,52,0.00,,---,0.00,VWS V14.01,2013-08-04 14:36:00,
2013-08-04 09:41:00,83.3,63.3,29.64,ESE,112,4.0,6.3,51,0.00,,---,0.00,VWS V14.01,2013-08-04 14:41:00,
2013-08-04 09:46:00,83.8,63.8,29.64,East,99,4.0,5.4,51,0.00,,---,0.00,VWS V14.01,2013-08-04 14:46:00,
2013-08-04 09:51:00,84.6,63.6,29.64,ESE,122,5.4,6.3,50,0.00,,---,0.00,VWS V14.01,2013-08-04 14:51:00,
2013-08-04 09:56:00,85.3,63.4,29.64,ESE,111,5.4,5.4,48,0.00,,---,0.00,VWS V14.01,2013-08-04 14:56:00,
2013-08-04 10:00:00,86.0,63.1,29.64,ENE,73,5.8,5.8,46,0.00,,---,0.00,VWS V14.01,2013-08-04 15:00:00,
2013-08-04 10:06:00,86.5,63.6,29.64,East,101,4.5,4.5,46,0.00,,---,0.00,VWS V14.01,2013-08-04 15:06:00,
2013-08-04 10:11:00,87.3,61.4,29.64,SW,233,3.6,4.0,42,0.00,,---,0.00,VWS V14.01,2013-08-04 15:11:00,
2013-08-04 10:16:00,88.9,57.3,29.64,SW,232,7.6,7.6,34,0.00,,---,0.00,VWS V14.01,2013-08-04 15:16:00,
2013-08-04 10:21:00,90.1,57.2,29.64,SSW,211,11.9,16.8,33,0.00,,---,0.00,VWS V14.01,2013-08-04 15:21:00,
2013-08-04 10:26:00,90.7,56.4,29.64,SSW,203,10.5,13.2,32,0.00,,---,0.00,VWS V14.01,2013-08-04 15:26:00,
2013-08-04 10:31:00,91.0,56.7,29.64,South,187,13.2,13.2,32,0.00,,---,0.00,VWS V14.01,2013-08-04 15:31:00,
2013-08-04 10:36:00,91.2,56.8,29.64,SSW,202,6.3,12.8,32,0.00,,---,0.00,VWS V14.01,2013-08-04 15:36:00,
2013-08-04 10:41:00,91.2,55.5,29.64,SSW,208,10.5,15.0,30,0.00,,---,0.00,VWS V14.01,2013-08-04 15:41:00,
2013-08-04 10:45:00,91.2,55.5,29.64,South,191,11.0,11.0,30,0.00,,---,0.00,VWS V14.01,2013-08-04 15:45:00,
2013-08-04 10:51:00,91.8,54.5,29.64,SSW,211,17.4,17.4,28,0.00,,---,0.00,VWS V14.01,2013-08-04 15:51:00,
2013-08-04 10:56:00,91.9,54.7,29.64,SW,225,15.9,19.7,28,0.00,,---,0.00,VWS V14.01,2013-08-04 15:56:00,
2013-08-04 11:01:00,91.9,54.7,29.61,SSW,203,11.0,11.9,28,0.00,,---,0.00,VWS V14.01,2013-08-04 16:01:00,
2013-08-04 11:06:00,92.1,54.8,29.61,SSW,209,15.0,17.0,28,0.00,,---,0.00,VWS V14.01,2013-08-04 16:06:00,
2013-08-04 11:11:00,92.3,55.0,29.61,South,181,15.0,15.0,28,0.00,,---,0.00,VWS V14.01,2013-08-04 16:11:00,
2013-08-04 11:16:00,92.8,55.5,29.61,SSW,207,12.3,16.8,28,0.00,,---,0.00,VWS V14.01,2013-08-04 16:16:00,
2013-08-04 11:21:00,92.8,55.5,29.61,SW,224,15.4,16.3,28,0.00,,---,0.00,VWS V14.01,2013-08-04 16:21:00,
2013-08-04 11:26:00,93.2,54.3,29.61,SSW,205,12.3,15.0,27,0.00,,---,0.00,VWS V14.01,2013-08-04 16:26:00,
2013-08-04 11:31:00,93.4,54.4,29.61,SW,216,14.5,17.9,27,0.00,,---,0.00,VWS V14.01,2013-08-04 16:31:00,
2013-08-04 11:36:00,93.4,54.4,29.61,SW,220,8.7,11.0,27,0.00,,---,0.00,VWS V14.01,2013-08-04 16:36:00,
2013-08-04 11:41:00,94.1,55.0,29.61,WSW,240,13.2,13.2,27,0.00,,---,0.00,VWS V14.01,2013-08-04 16:41:00,
2013-08-04 11:45:00,94.1,55.0,29.61,SSW,194,8.1,12.8,27,0.00,,---,0.00,VWS V14.01,2013-08-04 16:45:00,
2013-08-04 11:51:00,94.3,55.2,29.61,South,177,12.8,16.3,27,0.00,,---,0.00,VWS V14.01,2013-08-04 16:51:00,
2013-08-04 11:56:00,94.3,55.2,29.61,SW,233,12.8,12.8,27,0.00,,---,0.00,VWS V14.01,2013-08-04 16:56:00,
2013-08-04 12:01:00,94.5,55.3,29.61,SSW,210,8.3,15.0,27,0.00,,---,0.00,VWS V14.01,2013-08-04 17:01:00,
2013-08-04 12:06:00,94.8,55.7,29.61,South,178,8.7,15.4,27,0.00,,---,0.00,VWS V14.01,2013-08-04 17:06:00,
2013-08-04 12:11:00,94.8,55.7,29.61,SSW,209,8.1,8.7,27,0.00,,---,0.00,VWS V14.01,2013-08-04 17:11:00,
2013-08-04 12:16:00,95.4,54.5,29.61,WSW,245,8.7,10.5,26,0.00,,---,0.00,VWS V14.01,2013-08-04 17:16:00,
2013-08-04 12:21:00,95.7,54.8,29.61,SSW,198,10.1,15.0,26,0.00,,---,0.00,VWS V14.01,2013-08-04 17:21:00,
2013-08-04 12:26:00,96.3,55.3,29.61,SSW,212,19.2,19.2,26,0.00,,---,0.00,VWS V14.01,2013-08-04 17:26:00,
2013-08-04 12:31:00,96.3,55.3,29.61,WSW,239,10.5,12.8,26,0.00,,---,0.00,VWS V14.01,2013-08-04 17:31:00,
2013-08-04 12:35:00,97.0,54.2,29.61,WSW,253,11.0,12.8,24,0.00,,---,0.00,VWS V14.01,2013-08-04 17:35:00,
2013-08-04 12:41:00,97.0,54.2,29.61,SW,231,8.3,10.1,24,0.00,,---,0.00,VWS V14.01,2013-08-04 17:41:00,
2013-08-04 12:46:00,97.0,54.2,29.61,West,259,12.3,12.3,24,0.00,,---,0.00,VWS V14.01,2013-08-04 17:46:00,
2013-08-04 12:51:00,97.3,54.5,29.61,SW,235,10.1,10.1,24,0.00,,---,0.00,VWS V14.01,2013-08-04 17:51:00,
2013-08-04 12:55:00,97.5,54.7,29.61,WSW,244,10.5,13.2,24,0.00,,---,0.00,VWS V14.01,2013-08-04 17:55:00,
2013-08-04 13:01:00,97.5,54.7,29.61,SW,220,7.6,11.0,24,0.00,,---,0.00,VWS V14.01,2013-08-04 18:01:00,
2013-08-04 13:05:00,98.1,55.1,29.61,SSW,196,11.0,12.3,24,0.00,,---,0.00,VWS V14.01,2013-08-04 18:05:00,
2013-08-04 13:10:00,98.2,55.3,29.61,SSW,211,11.0,15.0,24,0.00,,---,0.00,VWS V14.01,2013-08-04 18:10:00,
2013-08-04 13:15:00,98.2,55.3,29.58,South,191,11.0,16.3,24,0.00,,---,0.00,VWS V14.01,2013-08-04 18:15:00,
2013-08-04 13:20:00,98.2,55.3,29.58,SSW,195,10.5,14.1,24,0.00,,---,0.00,VWS V14.01,2013-08-04 18:20:00,
2013-08-04 13:25:00,98.6,55.6,29.58,South,181,13.2,15.9,24,0.00,,---,0.00,VWS V14.01,2013-08-04 18:25:00,
2013-08-04 13:30:00,98.2,55.3,29.58,SW,222,10.1,10.5,24,0.00,,---,0.00,VWS V14.01,2013-08-04 18:30:00,
2013-08-04 13:35:00,98.2,55.3,29.58,SW,232,8.1,11.0,24,0.00,,---,0.00,VWS V14.01,2013-08-04 18:35:00,
2013-08-04 13:40:00,98.6,53.8,29.58,South,188,10.1,15.0,22,0.00,,---,0.00,VWS V14.01,2013-08-04 18:40:00,
2013-08-04 13:45:00,98.8,54.0,29.58,SSE,158,15.4,15.4,22,0.00,,---,0.00,VWS V14.01,2013-08-04 18:45:00,
2013-08-04 13:50:00,99.0,54.1,29.58,WSW,242,13.2,15.4,22,0.00,,---,0.00,VWS V14.01,2013-08-04 18:50:00,
2013-08-04 13:55:00,98.8,54.0,29.58,SW,231,8.7,14.5,22,0.00,,---,0.00,VWS V14.01,2013-08-04 18:55:00,
2013-08-04 14:00:00,99.0,54.1,29.58,WSW,242,8.1,9.6,22,0.00,,---,0.00,VWS V14.01,2013-08-04 19:00:00,
2013-08-04 14:05:00,99.1,54.3,29.58,South,179,8.3,12.8,22,0.00,,---,0.00,VWS V14.01,2013-08-04 19:05:00,
2013-08-04 14:10:00,99.9,54.9,29.58,South,172,8.3,8.3,22,0.00,,---,0.00,VWS V14.01,2013-08-04 19:10:00,
2013-08-04 14:15:00,100.0,55.0,29.58,South,190,15.9,15.9,22,0.00,,---,0.00,VWS V14.01,2013-08-04 19:15:00,
2013-08-04 14:20:00,99.5,54.6,29.58,SW,218,7.6,11.0,22,0.00,,---,0.00,VWS V14.01,2013-08-04 19:20:00,
2013-08-04 14:25:00,99.9,54.9,29.58,SSW,206,10.5,17.9,22,0.00,,---,0.00,VWS V14.01,2013-08-04 19:25:00,
2013-08-04 14:30:00,100.6,55.5,29.58,South,176,12.8,17.0,22,0.00,,---,0.00,VWS V14.01,2013-08-04 19:30:00,
2013-08-04 14:35:00,100.6,49.4,29.58,West,260,6.3,6.7,18,0.00,,---,0.00,VWS V14.01,2013-08-04 19:35:00,
2013-08-04 14:40:00,99.9,51.0,29.58,SSW,193,13.2,13.2,20,0.00,,---,0.00,VWS V14.01,2013-08-04 19:40:00,
2013-08-04 14:45:00,99.3,50.5,29.58,South,190,8.1,13.2,20,0.00,,---,0.00,VWS V14.01,2013-08-04 19:45:00,
2013-08-04 14:50:00,99.7,50.8,29.58,SW,229,12.3,12.3,20,0.00,,---,0.00,VWS V14.01,2013-08-04 19:50:00,
2013-08-04 14:55:00,99.5,50.7,29.58,South,183,11.0,12.3,20,0.00,,---,0.00,VWS V14.01,2013-08-04 19:55:00,
2013-08-04 15:00:00,99.7,50.8,29.58,South,184,8.1,9.2,20,0.00,,---,0.00,VWS V14.01,2013-08-04 20:00:00,
2013-08-04 15:05:00,100.2,51.3,29.58,WSW,257,3.1,8.7,20,0.00,,---,0.00,VWS V14.01,2013-08-04 20:05:00,
2013-08-04 15:10:00,101.1,49.8,29.58,SSW,211,4.0,8.7,18,0.00,,---,0.00,VWS V14.01,2013-08-04 20:10:00,
2013-08-04 15:15:00,101.5,50.1,29.58,SSW,211,7.6,12.3,18,0.00,,---,0.00,VWS V14.01,2013-08-04 20:15:00,
2013-08-04 15:20:00,101.1,49.8,29.58,SSW,208,8.7,11.9,18,0.00,,---,0.00,VWS V14.01,2013-08-04 20:20:00,
2013-08-04 15:25:00,100.0,51.1,29.58,South,183,6.3,8.1,20,0.00,,---,0.00,VWS V14.01,2013-08-04 20:25:00,
2013-08-04 15:30:00,100.4,49.3,29.55,SSW,199,11.0,11.0,18,0.00,,---,0.00,VWS V14.01,2013-08-04 20:30:00,
2013-08-04 15:35:00,100.2,51.3,29.55,SSE,160,7.6,7.6,20,0.00,,---,0.00,VWS V14.01,2013-08-04 20:35:00,
2013-08-04 15:40:00,99.9,51.0,29.55,SE,143,6.3,8.1,20,0.00,,---,0.00,VWS V14.01,2013-08-04 20:40:00,
2013-08-04 15:45:00,100.0,51.1,29.55,SSW,202,8.7,12.8,20,0.00,,---,0.00,VWS V14.01,2013-08-04 20:45:00,
2013-08-04 15:50:00,100.9,49.7,29.55,South,181,12.8,12.8,18,0.00,,---,0.00,VWS V14.01,2013-08-04 20:50:00,
2013-08-04 15:55:00,101.8,50.4,29.55,South,170,12.3,12.3,18,0.00,,---,0.00,VWS V14.01,2013-08-04 20:55:00,
2013-08-04 15:56:00,101.8,50.4,29.55,South,172,10.1,13.2,18,0.00,,---,0.00,VWS V14.01,2013-08-04 20:56:00,
2013-08-04 16:01:00,101.7,50.3,29.55,SSE,158,10.5,10.5,18,0.00,,---,0.00,VWS V14.01,2013-08-04 21:01:00,
2013-08-04 16:06:00,101.8,50.4,29.55,SSE,153,10.1,10.1,18,0.00,,---,0.00,VWS V14.01,2013-08-04 21:06:00,
2013-08-04 16:11:00,101.3,50.0,29.55,SSW,197,15.4,15.4,18,0.00,,---,0.00,VWS V14.01,2013-08-04 21:11:00,
2013-08-04 16:16:00,100.6,49.4,29.55,SW,217,8.7,8.7,18,0.00,,---,0.00,VWS V14.01,2013-08-04 21:16:00,
2013-08-04 16:21:00,100.6,49.4,29.55,South,180,6.3,10.1,18,0.00,,---,0.00,VWS V14.01,2013-08-04 21:21:00,
2013-08-04 16:26:00,100.6,49.4,29.55,South,173,6.3,6.3,18,0.00,,---,0.00,VWS V14.01,2013-08-04 21:26:00,
2013-08-04 16:31:00,100.8,49.5,29.55,South,176,7.6,8.3,18,0.00,,---,0.00,VWS V14.01,2013-08-04 21:31:00,
2013-08-04 16:36:00,100.8,49.5,29.55,South,169,9.2,12.8,18,0.00,,---,0.00,VWS V14.01,2013-08-04 21:36:00,
2013-08-04 16:41:00,100.6,49.4,29.55,South,178,10.1,10.1,18,0.00,,---,0.00,VWS V14.01,2013-08-04 21:41:00,
2013-08-04 16:46:00,100.8,49.5,29.55,SSE,149,8.3,8.3,18,0.00,,---,0.00,VWS V14.01,2013-08-04 21:46:00,
2013-08-04 16:49:00,100.8,49.5,29.55,SSE,159,8.3,10.5,18,0.00,,---,0.00,VWS V14.01,2013-08-04 21:49:00,
2013-08-04 16:54:00,100.9,49.7,29.55,SE,146,12.8,12.8,18,0.00,,---,0.00,VWS V14.01,2013-08-04 21:54:00,
2013-08-04 16:59:00,100.4,49.3,29.55,South,177,10.5,10.5,18,0.00,,---,0.00,VWS V14.01,2013-08-04 21:59:00,
2013-08-04 17:04:00,99.9,51.0,29.52,South,176,13.2,13.2,20,0.00,,---,0.00,VWS V14.01,2013-08-04 22:04:00,
2013-08-04 17:09:00,98.8,50.1,29.52,SSE,160,11.0,11.0,20,0.00,,---,0.00,VWS V14.01,2013-08-04 22:09:00,
2013-08-04 17:14:00,99.3,50.5,29.52,South,187,10.1,10.1,20,0.00,,---,0.00,VWS V14.01,2013-08-04 22:14:00,
2013-08-04 17:19:00,100.0,51.1,29.52,South,181,10.5,10.5,20,0.00,,---,0.00,VWS V14.01,2013-08-04 22:19:00,
2013-08-04 17:24:00,100.4,49.3,29.52,SSE,155,15.4,15.4,18,0.00,,---,0.00,VWS V14.01,2013-08-04 22:24:00,
2013-08-04 17:29:00,100.0,55.0,29.52,SE,144,8.1,8.3,22,0.00,,---,0.00,VWS V14.01,2013-08-04 22:29:00,
2013-08-04 17:34:00,99.9,51.0,29.52,South,174,14.1,17.4,20,0.00,,---,0.00,VWS V14.01,2013-08-04 22:34:00,
2013-08-04 17:39:00,99.3,54.4,29.52,SE,137,13.2,15.4,22,0.00,,---,0.00,VWS V14.01,2013-08-04 22:39:00,
2013-08-04 17:43:00,99.1,54.3,29.52,SE,124,17.0,17.0,22,0.00,,---,0.00,VWS V14.01,2013-08-04 22:43:00,
2013-08-04 17:49:00,97.5,54.7,29.52,SSE,150,8.7,8.7,24,0.00,,---,0.00,VWS V14.01,2013-08-04 22:49:00,
2013-08-04 17:54:00,97.5,54.7,29.52,South,169,8.3,11.0,24,0.00,,---,0.00,VWS V14.01,2013-08-04 22:54:00,
2013-08-04 17:59:00,98.1,55.1,29.52,SSE,149,16.3,16.3,24,0.00,,---,0.00,VWS V14.01,2013-08-04 22:59:00,
2013-08-04 18:04:00,97.5,54.7,29.52,SSE,153,17.0,17.0,24,0.00,,---,0.00,VWS V14.01,2013-08-04 23:04:00,
2013-08-04 18:09:00,97.5,54.7,29.52,SE,130,12.8,13.6,24,0.00,,---,0.00,VWS V14.01,2013-08-04 23:09:00,
2013-08-04 18:14:00,97.3,54.5,29.52,SSE,160,12.8,12.8,24,0.00,,---,0.00,VWS V14.01,2013-08-04 23:14:00,
2013-08-04 18:19:00,97.2,54.4,29.52,SE,131,15.4,17.4,24,0.00,,---,0.00,VWS V14.01,2013-08-04 23:19:00,
2013-08-04 18:24:00,96.8,54.1,29.52,South,173,15.4,17.0,24,0.00,,---,0.00,VWS V14.01,2013-08-04 23:24:00,
2013-08-04 18:29:00,96.8,54.1,29.52,SE,137,17.4,17.4,24,0.00,,---,0.00,VWS V14.01,2013-08-04 23:29:00,
2013-08-04 18:33:00,96.8,54.1,29.52,SSE,147,10.1,10.1,24,0.00,,---,0.00,VWS V14.01,2013-08-04 23:33:00,
2013-08-04 18:39:00,96.8,54.1,29.52,SSE,152,8.1,11.0,24,0.00,,---,0.00,VWS V14.01,2013-08-04 23:39:00,
2013-08-04 18:44:00,96.8,54.1,29.52,SE,134,14.5,14.5,24,0.00,,---,0.00,VWS V14.01,2013-08-04 23:44:00,
2013-08-04 18:48:00,96.3,55.3,29.52,SE,140,8.7,15.0,26,0.00,,---,0.00,VWS V14.01,2013-08-04 23:48:00,
2013-08-04 18:54:00,95.7,54.8,29.52,SSE,151,8.3,10.5,26,0.00,,---,0.00,VWS V14.01,2013-08-04 23:54:00,
2013-08-04 18:59:00,95.4,54.5,29.52,SE,136,11.0,11.0,26,0.00,,---,0.00,VWS V14.01,2013-08-04 23:59:00,
2013-08-04 19:04:00,95.2,54.4,29.52,SE,140,8.7,15.0,26,0.00,,---,0.00,VWS V14.01,2013-08-05 00:04:00,
2013-08-04 19:08:00,94.8,54.1,29.52,SSE,155,15.4,16.3,26,0.00,,---,0.00,VWS V14.01,2013-08-05 00:08:00,
2013-08-04 19:14:00,94.6,53.9,29.52,SE,146,12.3,13.6,26,0.00,,---,0.00,VWS V14.01,2013-08-05 00:14:00,
2013-08-04 19:18:00,94.5,53.8,29.52,SSE,152,11.0,15.4,26,0.00,,---,0.00,VWS V14.01,2013-08-05 00:18:00,
2013-08-04 19:24:00,94.3,53.6,29.52,SE,133,10.1,15.0,26,0.00,,---,0.00,VWS V14.01,2013-08-05 00:24:00,
2013-08-04 19:29:00,94.1,55.0,29.52,SE,139,8.3,10.1,27,0.00,,---,0.00,VWS V14.01,2013-08-05 00:29:00,
2013-08-04 19:34:00,93.7,54.7,29.52,South,172,12.8,12.8,27,0.00,,---,0.00,VWS V14.01,2013-08-05 00:34:00,
2013-08-04 19:39:00,93.6,53.0,29.52,SSE,158,12.8,12.8,26,0.00,,---,0.00,VWS V14.01,2013-08-05 00:39:00,
2013-08-04 19:43:00,93.2,54.3,29.52,SE,143,5.8,7.6,27,0.00,,---,0.00,VWS V14.01,2013-08-05 00:43:00,
2013-08-04 19:49:00,93.0,54.1,29.52,SE,140,8.1,10.5,27,0.00,,---,0.00,VWS V14.01,2013-08-05 00:49:00,
2013-08-04 19:54:00,92.7,53.8,29.52,SE,140,8.3,8.3,27,0.00,,---,0.00,VWS V14.01,2013-08-05 00:54:00,
2013-08-04 19:59:00,92.3,53.5,29.52,SE,139,12.3,13.2,27,0.00,,---,0.00,VWS V14.01,2013-08-05 00:59:00,
2013-08-04 20:03:00,92.1,53.4,29.52,SSE,158,6.3,8.7,27,0.00,,---,0.00,VWS V14.01,2013-08-05 01:03:00,
2013-08-04 20:09:00,91.8,53.1,29.52,SE,130,8.1,10.5,27,0.00,,---,0.00,VWS V14.01,2013-08-05 01:09:00,
2013-08-04 20:14:00,91.4,54.2,29.52,SSE,150,6.3,11.0,28,0.00,,---,0.00,VWS V14.01,2013-08-05 01:14:00,
2013-08-04 20:19:00,90.9,53.8,29.52,SE,139,6.3,9.6,28,0.00,,---,0.00,VWS V14.01,2013-08-05 01:19:00,
2013-08-04 20:24:00,90.5,54.9,29.52,SE,137,10.1,11.0,30,0.00,,---,0.00,VWS V14.01,2013-08-05 01:24:00,
2013-08-04 20:28:00,90.1,54.5,29.52,SE,143,10.1,10.1,30,0.00,,---,0.00,VWS V14.01,2013-08-05 01:28:00,
2013-08-04 20:34:00,89.8,55.6,29.55,SE,138,8.7,11.0,32,0.00,,---,0.00,VWS V14.01,2013-08-05 01:34:00,
2013-08-04 20:39:00,89.4,56.6,29.55,SE,135,8.7,11.0,33,0.00,,---,0.00,VWS V14.01,2013-08-05 01:39:00,
2013-08-04 20:44:00,89.2,56.4,29.55,SE,141,5.8,9.6,33,0.00,,---,0.00,VWS V14.01,2013-08-05 01:44:00,
2013-08-04 20:48:00,89.1,56.2,29.55,SSE,149,10.1,10.1,33,0.00,,---,0.00,VWS V14.01,2013-08-05 01:48:00,
2013-08-04 20:53:00,88.9,57.3,29.55,SE,142,7.6,8.1,34,0.00,,---,0.00,VWS V14.01,2013-08-05 01:53:00,
2013-08-04 20:58:00,88.7,57.2,29.55,ESE,123,6.7,7.6,34,0.00,,---,0.00,VWS V14.01,2013-08-05 01:58:00,
2013-08-04 21:03:00,88.2,56.7,29.55,SE,135,7.6,8.3,34,0.00,,---,0.00,VWS V14.01,2013-08-05 02:03:00,
2013-08-04 21:08:00,87.8,56.4,29.55,SE,142,5.8,7.6,34,0.00,,---,0.00,VWS V14.01,2013-08-05 02:08:00,
2013-08-04 21:13:00,87.4,57.2,29.55,SE,142,6.3,8.7,36,0.00,,---,0.00,VWS V14.01,2013-08-05 02:13:00,
2013-08-04 21:18:00,87.1,58.0,29.55,SE,138,7.6,8.1,38,0.00,,---,0.00,VWS V14.01,2013-08-05 02:18:00,
2013-08-04 21:23:00,86.9,57.9,29.55,SE,135,5.8,7.6,38,0.00,,---,0.00,VWS V14.01,2013-08-05 02:23:00,
2013-08-04 21:28:00,86.5,57.6,29.55,SE,138,7.6,8.7,38,0.00,,---,0.00,VWS V14.01,2013-08-05 02:28:00,
2013-08-04 21:33:00,86.4,57.4,29.55,SE,129,8.3,8.3,38,0.00,,---,0.00,VWS V14.01,2013-08-05 02:33:00,
2013-08-04 21:38:00,86.2,57.2,29.55,SE,127,7.6,10.5,38,0.00,,---,0.00,VWS V14.01,2013-08-05 02:38:00,
2013-08-04 21:43:00,86.0,58.2,29.55,SE,134,7.6,7.6,39,0.00,,---,0.00,VWS V14.01,2013-08-05 02:43:00,
2013-08-04 21:48:00,86.2,58.3,29.55,SE,144,7.6,8.3,39,0.00,,---,0.00,VWS V14.01,2013-08-05 02:48:00,
2013-08-04 21:53:00,86.0,58.2,29.55,SSE,154,8.1,8.3,39,0.00,,---,0.00,VWS V14.01,2013-08-05 02:53:00,
2013-08-04 21:58:00,85.8,59.1,29.55,SE,140,6.3,8.3,40,0.00,,---,0.00,VWS V14.01,2013-08-05 02:58:00,
2013-08-04 22:03:00,85.6,58.9,29.58,SE,141,5.8,9.6,40,0.00,,---,0.00,VWS V14.01,2013-08-05 03:03:00,
2013-08-04 22:08:00,85.5,58.8,29.58,SE,134,5.8,5.8,40,0.00,,---,0.00,VWS V14.01,2013-08-05 03:08:00,
2013-08-04 22:13:00,85.3,59.6,29.58,SE,146,6.3,7.6,42,0.00,,---,0.00,VWS V14.01,2013-08-05 03:13:00,
2013-08-04 22:18:00,85.1,59.5,29.58,SE,128,8.3,10.5,42,0.00,,---,0.00,VWS V14.01,2013-08-05 03:18:00,
2013-08-04 22:23:00,84.9,60.3,29.58,SSE,156,8.1,10.1,44,0.00,,---,0.00,VWS V14.01,2013-08-05 03:23:00,
2013-08-04 22:28:00,84.9,60.3,29.58,SSE,160,9.2,10.5,44,0.00,,---,0.00,VWS V14.01,2013-08-05 03:28:00,
2013-08-04 22:33:00,84.7,60.1,29.58,ESE,119,8.3,10.1,44,0.00,,---,0.00,VWS V14.01,2013-08-05 03:33:00,
2013-08-04 22:38:00,84.7,60.1,29.58,SSE,151,8.7,10.1,44,0.00,,---,0.00,VWS V14.01,2013-08-05 03:38:00,
2013-08-04 22:43:00,84.6,60.0,29.58,SSE,165,8.3,10.5,44,0.00,,---,0.00,VWS V14.01,2013-08-05 03:43:00,
2013-08-04 22:48:00,84.6,60.0,29.58,SSE,149,8.3,8.3,44,0.00,,---,0.00,VWS V14.01,2013-08-05 03:48:00,
2013-08-04 22:53:00,84.6,60.0,29.58,SSE,149,7.6,11.0,44,0.00,,---,0.00,VWS V14.01,2013-08-05 03:53:00,
2013-08-04 22:58:00,84.7,60.1,29.58,SE,138,6.3,10.5,44,0.00,,---,0.00,VWS V14.01,2013-08-05 03:58:00,
2013-08-04 23:01:00,84.7,60.1,29.58,SSE,147,10.5,10.5,44,0.00,,---,0.00,VWS V14.01,2013-08-05 04:01:00,
2013-08-04 23:06:00,84.9,60.3,29.58,SE,136,12.3,12.3,44,0.00,,---,0.00,VWS V14.01,2013-08-05 04:06:00,
2013-08-04 23:12:00,84.9,59.3,29.58,South,172,10.1,11.0,42,0.00,,---,0.00,VWS V14.01,2013-08-05 04:12:00,
2013-08-04 23:16:00,84.9,59.3,29.58,SE,146,8.1,10.1,42,0.00,,---,0.00,VWS V14.01,2013-08-05 04:16:00,
2013-08-04 23:22:00,84.7,60.1,29.58,SSE,152,8.3,10.5,44,0.00,,---,0.00,VWS V14.01,2013-08-05 04:22:00,
2013-08-04 23:27:00,84.4,59.8,29.58,SSE,147,5.4,5.4,44,0.00,,---,0.00,VWS V14.01,2013-08-05 04:27:00,
2013-08-04 23:31:00,83.8,59.3,29.58,SE,138,7.6,7.6,44,0.00,,---,0.00,VWS V14.01,2013-08-05 04:31:00,
2013-08-04 23:37:00,83.7,59.1,29.58,SSE,155,8.1,8.1,44,0.00,,---,0.00,VWS V14.01,2013-08-05 04:37:00,
2013-08-04 23:41:00,83.5,59.0,29.58,SSE,147,4.0,8.3,44,0.00,,---,0.00,VWS V14.01,2013-08-05 04:41:00,
2013-08-04 23:47:00,83.3,58.8,29.58,SSE,156,5.4,5.8,44,0.00,,---,0.00,VWS V14.01,2013-08-05 04:47:00,
2013-08-04 23:51:00,83.1,58.7,29.58,SSE,148,5.8,7.2,44,0.00,,---,0.00,VWS V14.01,2013-08-05 04:51:00,
2013-08-04 23:57:00,82.9,58.5,29.58,SSE,152,5.4,5.8,44,0.00,,---,0.00,VWS V14.01,2013-08-05 04:57:00,